Hourly Data Report for October 23, 2014

All times are specified in Local Standard Time (LST). Add 1 hour to adjust for Daylight Saving Time where and when it is observed.

PENTICTON A
BRITISH COLUMBIA

49°27'45.000" N
119°36'08.000" W
344.40 m
1126146
71889
YYF

Download Data

Hourly Data (October 2014)
Hourly Data Report for October 23, 2014
Temp Definition
°C
Dew Point Temp Definition
°C
Rel Hum Definition
%
Wind Dir Definition
10's deg

Wind Spd Definition
km/h
Visibility Definition
km
Stn Press Definition
kPa
Hmdx Definition


Wind Chill Definition


Weather Definition


TIME
00:00 Legend Double Dagger 13.4 10.2 81 18 30 16.1 96.12     Rain Showers
01:00 Legend Double Dagger 13.9 9.8 76 20 30 16.1 96.19     Cloudy
02:00 Legend Double Dagger 13.7 10.0 78 19 26 24.1 96.22     Rain Showers
03:00 Legend Double Dagger 13.3 9.8 79 19 13 19.3 96.29     LegendNANA
04:00 Legend Double Dagger 13.5 9.0 74 19 14 24.1 96.38     Mostly Cloudy
05:00 Legend Double Dagger 10.9 6.7 75 5 6 24.1 96.44     LegendNANA
06:00 Legend Double Dagger 12.4 7.5 72 19 16 24.1 96.44     LegendNANA
07:00 Legend Double Dagger 12.4 6.7 68 18 18 24.1 96.52     Cloudy
08:00 Legend Double Dagger 12.5 5.5 62 21 22 24.1 96.52     LegendNANA
09:00 Legend Double Dagger 12.7 5.2 60 20 31 24.1 96.46     LegendNANA
10:00 Legend Double Dagger 14.4 6.1 57 19 31 24.1 96.38     Mostly Cloudy
11:00 Legend Double Dagger 15.1 4.8 50 17 35 24.1 96.44     LegendNANA
12:00 Legend Double Dagger 14.6 5.2 53 18 39 24.1 96.39     LegendNANA
13:00 Legend Double Dagger 12.6 7.3 70 22 21 24.1 96.43     Moderate Rain Showers
14:00 Legend Double Dagger 11.4 6.6 72 18 29 24.1 96.46     LegendNANA
15:00 Legend Double Dagger 12.9 7.0 67 20 19 24.1 96.53     LegendNANA
16:00 Legend Double Dagger 13.2 7.3 67 18 16 24.1 96.65     Mostly Cloudy
17:00 Legend Double Dagger 12.3 6.8 69 18 8 24.1 96.72     LegendNANA
18:00 Legend Double Dagger 11.5 4.8 63 17 6 24.1 96.79     LegendNANA
19:00 Legend Double Dagger 9.6 3.4 65 36 2 24.1 96.91     Mostly Cloudy
20:00 Legend Double Dagger 7.9 4.1 77 36 1 24.1 96.97     LegendNANA
21:00 Legend Double Dagger 9.1 3.5 68 34 10 24.1 97.06     LegendNANA
22:00 Legend Double Dagger 10.4 2.5 58 22 11 24.1 97.16     Mostly Cloudy
23:00 Legend Double Dagger 8.4 2.7 67 0 1 24.1 97.28     LegendNANA

Notes on Data Quality.

Legend

  • E = Estimated
  • M = Missing
  • NA = Not Available
  • ‡ = Partner data that is not subject to review by the National Climate Archives
Date modified: